FW3072 Weather Reports


Display with metric or nautical units.
time (UTC)temp
F
wind
direction
speed
MPH
gust
MPH
rain 1hr
in
rain 24hr
in
rain mn
in
humidity
%
barometer
mb
20260503001202 42 249 1.0 7.0 0.00 0.00 0.00 71 1015.4
20260503000204 42 295 1.0 7.0 0.00 0.00 0.00 71 1015.4
20260502235202 42 266 0.0 9.0 0.00 0.00 0.00 70 1015.4
20260502234203 42 266 4.0 10.0 0.00 0.00 0.00 69 1015.3
20260502233248 42 285 2.0 8.0 0.00 0.00 0.00 69 1015.3
20260502232203 42 289 3.0 8.0 0.00 0.00 0.00 68 1015.4
20260502231202 42 301 3.0 10.0 0.00 0.00 0.00 69 1015.3
20260502230203 43 265 3.0 7.0 0.00 0.00 0.00 69 1015.2
20260502225202 43 233 2.0 6.0 0.00 0.00 0.00 68 1015.2
20260502224202 43 291 4.0 7.0 0.00 0.00 0.00 68 1015.2
20260502223202 43 308 2.0 7.0 0.00 0.00 0.00 68 1015.2
20260502222223 43 247 3.0 7.0 0.00 0.00 0.00 68 1015.2
20260502221202 43 284 2.0 8.0 0.00 0.00 0.00 68 1015.1
20260502220202 43 298 3.0 11.0 0.00 0.00 0.00 67 1015.2
20260502215203 43 281 7.0 11.0 0.00 0.00 0.00 68 1015.2
20260502214202 43 292 3.0 10.0 0.00 0.00 0.00 69 1015.1
20260502213202 43 286 7.0 12.0 0.00 0.00 0.00 69 1015.2
20260502212202 43 266 1.0 8.0 0.00 0.00 0.00 70 1015.1
20260502211204 43 276 3.0 9.0 0.00 0.00 0.00 71 1015.0
20260502210203 43 219 3.0 8.0 0.00 0.00 0.00 71 1015.0
20260502205204 43 243 3.0 8.0 0.00 0.00 0.00 71 1015.0
20260502204224 43 276 3.0 8.0 0.00 0.00 0.00 72 1015.1
20260502202223 43 266 3.0 9.0 0.00 0.00 0.00 71 1015.2
20260502201201 43 287 7.0 13.0 0.00 0.00 0.00 71 1015.3
20260502200223 42 300 2.0 12.0 0.00 0.00 0.00 71 1015.3
20260502195202 42 230 4.0 10.0 0.00 0.00 0.00 71 1015.4
20260502194203 42 223 3.0 8.0 0.00 0.00 0.00 70 1015.5
20260502193223 42 275 2.0 8.0 0.00 0.00 0.00 72 1015.5
20260502192202 42 278 2.0 13.0 0.00 0.00 0.00 71 1015.6
20260502191202 42 265 3.0 10.0 0.00 0.00 0.00 72 1015.7
20260502190202 42 267 2.0 10.0 0.00 0.00 0.00 71 1015.7
20260502184202 42 255 3.0 8.0 0.00 0.00 0.00 70 1015.5
20260502183225 42 234 2.0 6.0 0.00 0.01 0.00 68 1015.4
20260502182205 43 234 3.0 7.0 0.00 0.01 0.00 66 1015.5
20260502181202 44 229 4.0 11.0 0.00 0.01 0.00 65 1015.4
20260502180202 44 342 1.0 14.0 0.00 0.01 0.00 64 1015.4
20260502170201 45 327 4.0 10.0 0.00 0.02 0.00 63 1015.4
20260502164204 45 293 9.0 13.0 0.00 0.03 0.00 58 1015.5
20260502163202 45 296 8.0 13.0 0.00 0.03 0.00 59 1015.5
20260502162202 45 296 6.0 14.0 0.00 0.04 0.00 61 1015.5
20260502161203 44 313 4.0 11.0 0.00 0.04 0.00 62 1015.6
20260502160225 44 283 7.0 14.0 0.00 0.04 0.00 60 1015.6
20260502152202 45 310 6.0 13.0 0.00 0.05 0.00 56 1015.5
20260502151203 45 319 4.0 16.0 0.00 0.05 0.00 58 1015.5
20260502150223 44 303 8.0 14.0 0.00 0.05 0.00 58 1015.4
20260502130203 40 301 6.0 10.0 0.00 0.05 0.00 71 1016.1
20260502123203 39 278 5.0 12.0 0.00 0.05 0.00 73 1016.2
20260502122202 39 307 6.0 10.0 0.00 0.05 0.00 74 1016.2
20260502121202 38 290 5.0 11.0 0.00 0.05 0.00 78 1016.1
20260502120204 38 311 4.0 9.0 0.00 0.05 0.00 80 1016.0
20260502115202 37 269 2.0 4.0 0.00 0.05 0.00 83 1016.2
20260502114203 37 261 0.0 2.0 0.00 0.05 0.00 85 1016.1
20260502113203 36 260 1.0 3.0 0.00 0.05 0.00 86 1016.1
20260502112223 35 287 0.0 3.0 0.00 0.05 0.00 87 1016.1
20260502111205 34 287 1.0 3.0 0.00 0.05 0.00 88 1016.1
20260502110202 33 290 0.0 7.0 0.00 0.05 0.00 87 1015.9
20260502105202 33 299 1.0 3.0 0.00 0.05 0.00 87 1015.8
20260502104202 33 294 1.0 4.0 0.00 0.05 0.00 88 1015.7
20260502103202 32 315 2.0 4.0 0.00 0.05 0.00 88 1015.7
20260502102202 32 300 2.0 5.0 0.00 0.05 0.00 88 1015.5
20260502101202 32 305 1.0 5.0 0.00 0.05 0.00 88 1015.5
20260502100225 31 281 2.0 5.0 0.00 0.05 0.00 88 1015.3
20260502091203 31 289 0.0 0.0 0.00 0.05 0.00 86 1015.3
20260502090202 31 289 0.0 0.0 0.00 0.05 0.00 86 1015.2
20260502071202 34 289 0.0 3.0 0.00 0.05 0.00 83 1014.8
20260502070203 34 288 0.0 3.0 0.00 0.05 0.00 83 1014.9
20260502065202 34 285 1.0 4.0 0.00 0.05 0.00 82 1015.0
20260502064202 35 304 1.0 3.0 0.00 0.05 0.00 81 1014.9
20260502063204 35 304 0.0 1.0 0.00 0.05 0.00 81 1015.0
20260502062202 36 303 1.0 5.0 0.00 0.05 0.00 80 1014.9
20260502061203 36 293 2.0 3.0 0.00 0.05 0.00 80 1014.9
20260502060202 36 293 2.0 4.0 0.00 0.05 0.00 79 1015.0
20260502055202 36 291 1.0 5.0 0.00 0.05 0.00 79 1015.0
20260502054202 36 299 2.0 4.0 0.00 0.05 0.00 79 1015.1
20260502053202 37 296 1.0 5.0 0.00 0.05 0.00 78 1015.1
20260502052224 37 296 1.0 7.0 0.00 0.05 0.00 77 1015.1
20260502051203 38 292 3.0 7.0 0.00 0.05 0.00 77 1014.9
20260502050223 38 295 3.0 7.0 0.00 0.05 0.00 76 1014.9
20260502045203 38 310 4.0 8.0 0.00 0.05 0.00 75 1014.7
20260502044223 39 310 3.0 8.0 0.00 0.05 0.00 74 1014.6
20260502042203 40 302 8.0 12.0 0.00 0.05 0.00 73 1014.2
20260502041202 40 314 5.0 12.0 0.00 0.05 0.00 73 1014.2
20260502040202 40 307 5.0 13.0 0.00 0.05 0.00 74 1014.3
20260502035202 41 310 4.0 8.0 0.00 0.05 0.05 79 1014.2
20260502034202 41 302 1.0 5.0 0.00 0.05 0.05 81 1014.1
20260502033202 41 289 2.0 5.0 0.00 0.05 0.05 81 1014.1
20260502032203 42 295 1.0 7.0 0.00 0.05 0.05 82 1014.0
20260502031223 42 295 2.0 8.0 0.00 0.05 0.05 82 1014.0
20260502030202 42 241 1.0 3.0 0.00 0.05 0.05 82 1014.2
20260502025202 42 297 1.0 2.0 0.00 0.05 0.05 82 1014.2
20260502024204 42 297 0.0 10.0 0.00 0.05 0.05 82 1014.1
20260502023204 42 248 2.0 3.0 0.00 0.05 0.05 82 1014.0
20260502021202 42 279 1.0 3.0 0.00 0.05 0.05 81 1014.0
20260502020202 42 279 1.0 4.0 0.00 0.05 0.05 81 1014.1
20260502014202 42 280 3.0 4.0 0.00 0.05 0.05 81 1013.8
20260502013205 42 266 1.0 4.0 0.00 0.05 0.05 81 1013.7
20260502012202 42 285 2.0 5.0 0.00 0.05 0.05 81 1013.7
20260502011202 42 235 1.0 4.0 0.00 0.05 0.05 82 1013.6
20260502010202 42 290 0.0 5.0 0.00 0.05 0.05 82 1013.5
20260502005202 43 270 2.0 8.0 0.00 0.05 0.05 81 1013.4
20260502004203 43 273 1.0 4.0 0.00 0.05 0.05 81 1013.3
20260502003202 43 277 2.0 5.0 0.00 0.05 0.05 81 1013.1
20260502002201 43 303 1.0 2.0 0.00 0.05 0.05 80 1012.9